{"data":{"norad_id":45460,"intl_designator":"2020-021A","name":"YAOGAN-30 07A","alt_names":[],"object_type":"PAYLOAD","status":"ACTIVE","operator":null,"country":"PRC","launch_date":"2020-03-24","launch_site_code":"XICLF","launch_vehicle":null,"mission":null,"orbit_class":"UNKNOWN","rcs_meters":null,"size_class":null,"mass_kg":null,"dimensions":null,"purposes":[],"wikipedia_slug":null,"has_3d_model":false,"image_url":null,"decayed_at":null,"tle_current":{"epoch":"2026-05-25T01:02:47.433984Z","epoch_age_seconds":74578,"freshness":"FRESH","line1":"1 45460U 20021A   26145.04360456  .00002588  00000+0  19271-3 0  9995","line2":"2 45460  34.9961 351.9297 0003399 196.7070 163.3526 15.02582649337071","mean_motion":15.02582649,"eccentricity":0.0003399,"inclination_deg":34.9961,"raan_deg":351.9297,"arg_perigee_deg":196.707,"mean_anomaly_deg":163.3526,"bstar":0.00019271,"rev_number":33707,"period_min":95.834994564748,"perigee_km":556.57804022374,"apogee_km":561.29386241605,"semimajor_km":6937.0729513199,"source":"CELESTRAK","updated_at":"2026-05-25T13:37:56.181532Z"}}}